CDT,Max TemperatureF,Mean TemperatureF,Min TemperatureF,Max Dew PointF,MeanDew PointF,Min DewpointF,Max Humidity, Mean Humidity, Min Humidity, Max Sea Level PressureIn, Mean Sea Level PressureIn, Min Sea Level PressureIn, Max VisibilityMiles, Mean VisibilityMiles, Min VisibilityMiles, Max Wind SpeedMPH, Mean Wind SpeedMPH, Max Gust SpeedMPH,PrecipitationIn, CloudCover, Events, WindDirDegrees
2013-6-1,69,60,51,57,50,43,82,72,56,29.97,29.71,29.57,10,10,10,25,9,31,0.00,6,,301
2013-6-2,64,56,48,43,39,37,76,56,37,30.10,30.05,29.97,10,10,5,16,11,22,0.00,2,,15
2013-6-3,69,58,48,45,41,37,76,50,33,30.07,30.03,29.92,10,10,10,22,7,24,0.00,2,,134
2013-6-4,62,58,53,54,49,43,88,73,48,30.07,30.03,29.99,10,10,5,23,14,30,0.05,7,,137
2013-6-5,68,60,53,52,50,46,94,73,46,30.06,29.99,29.93,10,10,5,14,7,18,0.00,7,,188
2013-6-6,57,54,51,52,49,46,94,82,72,30.05,30.00,29.97,10,9,4,14,8,,0.00,8,,21
2013-6-7,64,58,53,52,48,46,88,71,52,30.06,30.01,29.93,10,10,6,8,5,,0.00,7,,1
2013-6-8,66,60,53,55,51,48,82,71,52,29.93,29.90,29.86,10,10,4,16,8,17,0.00,4,,147
2013-6-9,68,62,57,63,57,52,94,84,77,29.87,29.77,29.73,10,9,3,25,17,33,0.23,7,,104
2013-6-10,69,63,57,61,58,55,94,82,64,29.89,29.85,29.81,10,6,0,13,4,,0.00,6,,159
2013-6-11,82,70,59,68,62,55,88,76,51,29.91,29.86,29.82,10,9,5,17,7,23,0.00,1,,103
2013-6-12,75,68,62,66,61,55,88,79,68,29.95,29.83,29.74,10,10,5,21,11,26,0.08,6,Thunderstorm,46
2013-6-13,75,65,55,55,52,48,77,60,44,30.12,30.06,29.95,10,10,3,14,9,17,0.00,0,,25
2013-6-14,77,68,60,61,56,54,83,63,50,30.09,29.99,29.88,10,10,5,24,11,31,0.26,3,Thunderstorm,149
2013-6-15,77,70,64,64,62,61,94,77,57,29.95,29.90,29.86,10,10,9,15,8,21,0.01,3,Thunderstorm,224
2013-6-16,84,72,59,61,53,46,88,55,27,29.97,29.93,29.89,10,10,10,16,6,26,0.00,0,,267
2013-6-17,80,71,62,55,52,48,72,51,32,30.01,29.95,29.91,10,10,10,17,9,26,0.00,1,,305
2013-6-18,75,66,57,59,56,54,94,68,50,30.10,30.04,30.00,10,10,2,17,9,23,0.70,4,Thunderstorm,79
2013-6-19,84,73,62,63,57,55,77,59,37,30.06,30.00,29.94,10,10,9,14,10,20,0.00,2,,158
2013-6-20,89,79,69,64,62,59,73,55,38,30.01,29.95,29.88,10,10,10,22,12,28,0.00,3,,176
2013-6-21,82,73,64,70,64,57,88,74,54,30.04,29.90,29.81,10,10,5,34,13,44,0.24,4,Thunderstorm,125
2013-6-22,84,74,64,72,66,59,94,80,55,30.02,29.91,29.83,10,10,5,23,9,38,1.09,4,Thunderstorm,65
2013-6-23,80,74,69,68,65,63,88,72,58,29.91,29.81,29.72,10,10,6,24,13,32,0.32,3,Thunderstorm,215
2013-6-24,77,70,64,72,65,63,94,83,73,29.92,29.87,29.81,10,9,2,17,6,25,0.03,3,Thunderstorm,162
2013-6-25,86,76,66,73,67,61,89,77,62,29.83,29.77,29.72,10,10,6,14,10,20,0.03,2,,145
2013-6-26,86,78,71,72,67,61,94,73,45,29.86,29.74,29.67,10,9,4,21,8,28,0.00,2,Thunderstorm,288
2013-6-27,84,76,68,64,59,52,83,56,35,29.89,29.85,29.83,10,10,10,25,9,32,0.00,1,,290
2013-6-28,78,72,66,63,57,54,88,62,50,29.87,29.83,29.79,10,10,10,29,14,37,0.00,3,,322
2013-6-29,75,68,62,61,55,48,88,65,46,29.99,29.87,29.78,10,10,8,22,12,25,0.00,4,,9
2013-6-30,78,66,55,52,49,43,77,54,31,30.13,30.08,29.99,10,10,7,15,8,17,0.00,0,,33